Location: *
(43.9905°S, 176.4941°W)
Time: 20:27:47
(UTC+00:00)

DEBRIS - Pass Details

Date: 08 December 2019
Orbit: 275 x 15291 km, 49.4° (Epoch: 24 January)

Event Time Altitude Azimuth Distance (km) Brightness Sun altitude
Rises 08:58:15 0° 290° (WNW) 4,402 7.7 -14.0°
Reaches altitude 10° 09:02:28 10° 286° (WNW) 2,321 6.3 -14.4°
Maximum altitude 09:06:39 58° 205° (SSW) 467 2.8 -14.9°
Drops below altitude 10° 09:08:48 10° 123° (ESE) 1,187 4.5 -15.1°
Enters shadow 09:09:58 - 118° (ESE) 1,791 5.4 -15.2°
